| time (UTC) | temp C | wind direction | speed KPH | gust KPH | rain 1hr cm | rain 24hr cm | rain mn cm | humidity % | barometer mb |
| 20260905043108 | 18 | 323 | 3.2 | 9.7 | 0.00 | 0.00 | 0.00 | 62 | 1016.1 |
| 20260905041603 | 19 | 360 | 3.2 | 14.5 | 0.00 | 0.00 | 0.00 | 61 | 1016.1 |
| 20260905034609 | 18 | 360 | 1.6 | 8.0 | 0.00 | 0.00 | 0.00 | 65 | 1016.7 |
| 20260905033101 | 18 | 360 | 1.6 | 11.3 | 0.00 | 0.00 | 0.00 | 65 | 1016.8 |
| 20260905031605 | 18 | 355 | 1.6 | 11.3 | 0.00 | 0.00 | 0.00 | 65 | 1017.1 |
| 20260905030119 | 17 | 24 | 0.0 | 6.4 | 0.00 | 0.00 | 0.00 | 68 | 1017.2 |
| 20260905024605 | 16 | 28 | 0.0 | 4.8 | 0.00 | 0.00 | 0.00 | 71 | 1017.7 |
| 20260905023101 | 16 | 24 | 1.6 | 9.7 | 0.00 | 0.00 | 0.00 | 72 | 1017.8 |
| 20260905021604 | 16 | 0 | 0.0 | 6.4 | 0.00 | 0.00 | 0.00 | 74 | 1018.0 |
| 20260905020107 | 16 | 13 | 0.0 | 3.2 | 0.00 | 0.00 | 0.00 | 76 | 1018.0 |
| 20260905014603 | 16 | 75 | 1.6 | 8.0 | 0.00 | 0.00 | 0.00 | 77 | 1018.4 |
| 20260905013101 | 16 | 0 | 0.0 | 4.8 | 0.00 | 0.00 | 0.00 | 80 | 1018.4 |
| 20260905011608 | 16 | 81 | 0.0 | 3.2 | 0.00 | 0.00 | 0.00 | 81 | 1018.6 |
| 20260905010103 | 15 | 5 | 1.6 | 6.4 | 0.00 | 0.00 | 0.00 | 83 | 1018.8 |
| 20260905004608 | 14 | 0 | 0.0 | 8.0 | 0.00 | 0.00 | 0.00 | 85 | 1018.9 |
| 20260905003101 | 14 | 27 | 1.6 | 9.7 | 0.00 | 0.00 | 0.00 | 82 | 1019.1 |
| 20260905001609 | 14 | 0 | 0.0 | 3.2 | 0.00 | 0.00 | 0.00 | 80 | 1018.9 |
| 20260905000105 | 14 | 5 | 0.0 | 3.2 | 0.00 | 0.00 | 0.00 | 80 | 1018.6 |
| 20260904234608 | 13 | 0 | 0.0 | 1.6 | 0.00 | 0.00 | 0.00 | 80 | 1018.5 |
| 20260904233103 | 13 | 29 | 0.0 | 6.4 | 0.00 | 0.00 | 0.00 | 78 | 1018.4 |
| 20260904231604 | 13 | 0 | 0.0 | 1.6 | 0.00 | 0.00 | 0.00 | 78 | 1018.4 |
| 20260904230106 | 13 | 0 | 0.0 | 1.6 | 0.00 | 0.00 | 0.00 | 75 | 1018.2 |
| 20260904224602 | 13 | 0 | 0.0 | 1.6 | 0.00 | 0.00 | 0.00 | 75 | 1018.2 |
| 20260904223101 | 13 | 0 | 0.0 | 1.6 | 0.00 | 0.00 | 0.00 | 75 | 1018.2 |
| 20260904221608 | 13 | 0 | 0.0 | 1.6 | 0.00 | 0.00 | 0.00 | 75 | 1018.4 |
| 20260904220111 | 13 | 0 | 0.0 | 1.6 | 0.00 | 0.00 | 0.00 | 76 | 1018.3 |
| 20260904214605 | 13 | 0 | 0.0 | 3.2 | 0.00 | 0.00 | 0.00 | 76 | 1018.2 |
| 20260904213104 | 13 | 0 | 0.0 | 3.2 | 0.00 | 0.00 | 0.00 | 75 | 1018.1 |
| 20260904211608 | 13 | 0 | 0.0 | 1.6 | 0.00 | 0.00 | 0.00 | 77 | 1017.9 |
| 20260904210111 | 13 | 0 | 0.0 | 0.0 | 0.00 | 0.00 | 0.00 | 78 | 1018.1 |
| 20260904204606 | 13 | 0 | 0.0 | 0.0 | 0.00 | 0.00 | 0.00 | 78 | 1018.2 |
| 20260904203109 | 13 | 0 | 0.0 | 0.0 | 0.00 | 0.00 | 0.00 | 77 | 1018.0 |
| 20260904201606 | 13 | 0 | 0.0 | 0.0 | 0.00 | 0.00 | 0.00 | 75 | 1018.1 |
| 20260904200134 | 13 | 0 | 0.0 | 0.0 | 0.00 | 0.00 | 0.00 | 73 | 1018.1 |
| 20260904194635 | 13 | 0 | 0.0 | 0.0 | 0.00 | 0.00 | 0.00 | 72 | 1018.3 |
| 20260904193119 | 13 | 0 | 0.0 | 0.0 | 0.00 | 0.00 | 0.00 | 72 | 1018.5 |
| 20260904191623 | 13 | 0 | 0.0 | 0.0 | 0.00 | 0.00 | 0.00 | 72 | 1018.7 |
| 20260904190104 | 13 | 0 | 0.0 | 0.0 | 0.00 | 0.00 | 0.00 | 72 | 1018.7 |
| 20260904184610 | 13 | 0 | 0.0 | 0.0 | 0.00 | 0.00 | 0.00 | 71 | 1018.9 |
| 20260904183101 | 13 | 0 | 0.0 | 1.6 | 0.00 | 0.00 | 0.00 | 69 | 1019.2 |
| 20260904181601 | 14 | 43 | 0.0 | 3.2 | 0.00 | 0.00 | 0.00 | 67 | 1019.3 |
| 20260904180103 | 14 | 0 | 0.0 | 4.8 | 0.00 | 0.00 | 0.00 | 65 | 1019.6 |
| 20260904174606 | 13 | 340 | 0.0 | 1.6 | 0.00 | 0.00 | 0.00 | 68 | 1019.7 |
| 20260904173109 | 14 | 0 | 0.0 | 0.0 | 0.00 | 0.00 | 0.00 | 68 | 1019.9 |
| 20260904171601 | 14 | 319 | 0.0 | 6.4 | 0.00 | 0.00 | 0.00 | 66 | 1019.9 |
| 20260904170059 | 14 | 0 | 0.0 | 4.8 | 0.00 | 0.00 | 0.00 | 66 | 1020.1 |
| 20260904164603 | 13 | 0 | 0.0 | 1.6 | 0.00 | 0.05 | 0.00 | 68 | 1020.2 |
| 20260904163058 | 14 | 0 | 0.0 | 3.2 | 0.00 | 0.05 | 0.00 | 67 | 1020.3 |
| 20260904161601 | 14 | 0 | 0.0 | 3.2 | 0.00 | 0.05 | 0.00 | 66 | 1020.4 |
| 20260904160103 | 14 | 0 | 0.0 | 3.2 | 0.00 | 0.05 | 0.00 | 66 | 1020.4 |
| 20260904154620 | 14 | 257 | 0.0 | 6.4 | 0.00 | 0.08 | 0.05 | 66 | 1020.6 |
| 20260904153103 | 14 | 0 | 0.0 | 3.2 | 0.00 | 0.08 | 0.05 | 66 | 1020.6 |
| 20260904151611 | 14 | 0 | 1.6 | 6.4 | 0.00 | 0.08 | 0.05 | 65 | 1020.7 |
| 20260904150106 | 14 | 0 | 0.0 | 1.6 | 0.00 | 0.08 | 0.05 | 67 | 1021.0 |
| 20260904144604 | 15 | 0 | 0.0 | 6.4 | 0.00 | 0.08 | 0.05 | 66 | 1021.1 |
| 20260904143101 | 15 | 262 | 1.6 | 4.8 | 0.00 | 0.08 | 0.05 | 67 | 1021.3 |
| 20260904141623 | 15 | 253 | 0.0 | 3.2 | 0.00 | 0.08 | 0.05 | 67 | 1021.3 |
| 20260904140109 | 14 | 0 | 0.0 | 3.2 | 0.00 | 0.08 | 0.05 | 68 | 1021.3 |
| 20260904134611 | 15 | 258 | 0.0 | 4.8 | 0.00 | 0.08 | 0.05 | 67 | 1021.3 |
| 20260904133116 | 15 | 0 | 0.0 | 3.2 | 0.00 | 0.08 | 0.05 | 66 | 1021.3 |
| 20260904131615 | 15 | 255 | 0.0 | 8.0 | 0.00 | 0.08 | 0.05 | 64 | 1021.3 |
| 20260904130104 | 15 | 0 | 0.0 | 4.8 | 0.00 | 0.08 | 0.05 | 65 | 1021.4 |
| 20260904124600 | 15 | 265 | 0.0 | 6.4 | 0.00 | 0.08 | 0.05 | 64 | 1021.4 |
| 20260904123123 | 15 | 263 | 1.6 | 11.3 | 0.00 | 0.08 | 0.05 | 66 | 1021.6 |
| 20260904121558 | 15 | 254 | 0.0 | 6.4 | 0.00 | 0.08 | 0.05 | 67 | 1021.4 |
| 20260904114602 | 15 | 260 | 0.0 | 3.2 | 0.00 | 0.08 | 0.05 | 68 | 1021.4 |
| 20260904113108 | 15 | 0 | 0.0 | 3.2 | 0.00 | 0.08 | 0.05 | 69 | 1021.2 |
| 20260904111558 | 15 | 0 | 0.0 | 0.0 | 0.00 | 0.08 | 0.05 | 72 | 1021.0 |
| 20260904110100 | 15 | 329 | 0.0 | 1.6 | 0.00 | 0.08 | 0.05 | 72 | 1020.9 |
| 20260904104601 | 15 | 254 | 0.0 | 1.6 | 0.00 | 0.08 | 0.05 | 72 | 1020.8 |
| 20260904103106 | 15 | 0 | 0.0 | 1.6 | 0.00 | 0.08 | 0.05 | 72 | 1020.7 |
| 20260904101603 | 15 | 0 | 0.0 | 6.4 | 0.00 | 0.08 | 0.05 | 71 | 1020.6 |
| 20260904100108 | 15 | 0 | 0.0 | 6.4 | 0.00 | 0.08 | 0.05 | 69 | 1020.5 |
| 20260904094602 | 15 | 259 | 0.0 | 6.4 | 0.00 | 0.08 | 0.05 | 68 | 1020.4 |
| 20260904093107 | 15 | 261 | 1.6 | 6.4 | 0.00 | 0.08 | 0.05 | 69 | 1020.3 |
| 20260904091601 | 16 | 245 | 1.6 | 6.4 | 0.00 | 0.08 | 0.05 | 68 | 1020.0 |
| 20260904090104 | 16 | 222 | 1.6 | 8.0 | 0.00 | 0.08 | 0.05 | 68 | 1019.8 |
| 20260904084603 | 16 | 275 | 1.6 | 6.4 | 0.00 | 0.08 | 0.05 | 64 | 1019.7 |
| 20260904083104 | 16 | 256 | 1.6 | 6.4 | 0.00 | 0.08 | 0.05 | 63 | 1019.5 |
| 20260904081602 | 16 | 207 | 1.6 | 8.0 | 0.00 | 0.08 | 0.05 | 63 | 1019.5 |
| 20260904080107 | 16 | 240 | 3.2 | 12.9 | 0.00 | 0.08 | 0.05 | 59 | 1019.3 |
| 20260904074604 | 17 | 82 | 3.2 | 11.3 | 0.00 | 0.08 | 0.05 | 58 | 1019.3 |
| 20260904073104 | 17 | 254 | 3.2 | 11.3 | 0.00 | 0.08 | 0.05 | 59 | 1019.0 |
| 20260904071601 | 17 | 251 | 4.8 | 12.9 | 0.00 | 0.08 | 0.05 | 57 | 1018.9 |
| 20260904064620 | 17 | 171 | 4.8 | 9.7 | 0.00 | 0.08 | 0.05 | 59 | 1018.6 |
| 20260904063102 | 17 | 227 | 3.2 | 14.5 | 0.00 | 0.08 | 0.05 | 59 | 1018.5 |
| 20260904061600 | 17 | 254 | 3.2 | 14.5 | 0.00 | 0.08 | 0.05 | 59 | 1018.5 |
| 20260904054603 | 17 | 262 | 1.6 | 14.5 | 0.00 | 0.08 | 0.05 | 63 | 1018.4 |
| 20260904053110 | 17 | 149 | 1.6 | 12.9 | 0.00 | 0.08 | 0.05 | 64 | 1018.4 |
| 20260904051609 | 18 | 263 | 1.6 | 16.1 | 0.00 | 0.08 | 0.05 | 64 | 1018.4 |
| 20260904050146 | 17 | 238 | 1.6 | 11.3 | 0.00 | 0.08 | 0.05 | 68 | 1018.5 |
| 20260904044602 | 17 | 229 | 4.8 | 16.1 | 0.00 | 0.13 | 0.05 | 71 | 1018.8 |